Skip Page Navigation
NASA JPL Caltech
NASA Logo - Jet Propulsion Laboratory + View the NASA Portal
+ Near-Earth Object (NEO) Program
Search JPL
JPL Home Earth Solar System Stars & Galaxies Technology
JPL Solar System Dynamics
BODIES ORBITS EPHEMERIDES TOOLS PHYSICAL DATA DISCOVERY FAQ SITE MAP
JPL Small-Body Database Browser
Search: [ help ]  
255703 Stetson (2006 QN90)
Classification: Main-belt Asteroid          SPK-ID: 2255703
Ephemeris | Orbit Diagram | Orbital Elements | Physical Parameters | Discovery Circumstances ]

[ hide orbit diagram ]
Orbit Diagram
Note: Make sure you have Java enabled on your browser to see the applet. This applet is provided as a 3D orbit visualization tool. The applet was implemented using 2-body methods, and hence should not be used for determining accurate long-term trajectories (over several years or decades) or planetary encounter circumstances. For accurate long-term ephemerides, please instead use our Horizons system.
Orbit Viewer

Additional Notes: the orbits shown in the applet are color coded. The planets are white lines, and the asteroid/comet is a blue line. The bright white line indicates the portion of the orbit that is above the ecliptic plane, and the darker portion is below the ecliptic plane. Likewise for the asteroid/comet orbit, the light blue indicates the portion above the ecliptic plane, and the dark blue the portion below the ecliptic plane.

Orbit Viewer applet originally written and kindly provided by Osamu Ajiki (AstroArts), and further modified by Ron Baalke (JPL).


Orbital Elements at Epoch 2456400.5 (2013-Apr-18.0) TDB
Reference: MPO185013 (heliocentric ecliptic J2000)
 Element Value Uncertainty (1-sigma)   Units 
e 0.1186449 n/a  
a 2.4203932 n/a AU
q 2.1332259 n/a AU
i 5.14421 n/a deg
node 11.49062 n/a deg
peri 296.58581 n/a deg
M 293.25007 n/a deg
tp 2456655.5208208
(2013-Dec-29.02082080)
n/a JED
period 1375.3946332
3.77
n/a
n/a
d
yr
n 0.26174306 n/a deg/d
Q 2.7075605 n/a AU
  Orbit Determination Parameters
   # obs. used (total)      50  
   first obs. used      1995-??-??  
   last obs. used      2010-11-03  
   # oppositions      5  
   planetary ephem.      DE403  
   condition code      1  
   fit RMS      0.31  
   data source      MPC:mpu  
   producer      MPCADO  

Additional Information
 T_jup = 3.499 

Ephemeris | Orbit Diagram | Orbital Elements | Physical Parameters | Discovery Circumstances ]

Physical Parameter Table
Parameter Symbol Value Units Sigma Reference Notes
absolute magnitude H 17.5 mag n/a MPO185013  

255703 Stetson           Discovered 2006 Aug. 25 by D. D. Balam at Mauna Kea.
Peter Brailey Stetson (b. 1952) develops freely-available software for the analysis of CCD images and spectra, notably DAOPHOT for precision photometry in crowded fields. His fundamental contributions to numerous fields have greatly advanced astrophysics since the deployment of CCDs in the 1980s.
NOTE: some special characters may not display properly (any characters within {} are an attempt to place the proper accent above a character)
Reference: 20120207/MPCPages.arcLast Updated: 2012-02-09

Alternate Designations
 2006 QN90 = 1995 SP44 
Ephemeris | Orbit Diagram | Orbital Elements | Physical Parameters | Discovery Circumstances ]
ABOUT SSD CREDITS/AWARDS PRIVACY/COPYRIGHT GLOSSARY LINKS
FirstGov 2013-May-20 09:13 UT
(server date/time)  
NASA Home Page
Site Manager:   Donald K. Yeomans
Webmaster  Alan B. Chamberlin